Time,TemperatureF,DewpointF,PressureIn,WindDirection,WindDirectionDegrees,WindSpeedMPH,WindSpeedGustMPH,Humidity,HourlyPrecipIn,Conditions,Clouds,dailyrainin,SolarRadiationWatts/m^2,SoftwareType,DateUTC
2013-04-19 00:12:00,43.0,33.0,-100.00,SSW,202,9.0,23.0,67,0.00,,,2.08,1.000000,,2013-04-19 05:12:00,
2013-04-19 00:22:00,43.0,33.0,-100.00,SSW,202,9.0,23.0,67,0.00,,,2.08,1.000000,,2013-04-19 05:22:00,
2013-04-19 00:32:00,43.0,33.0,-100.00,SSW,202,9.0,23.0,67,0.00,,,2.08,1.000000,,2013-04-19 05:32:00,
2013-04-19 00:42:00,43.0,33.0,-100.00,SSW,202,9.0,23.0,67,0.00,,,2.08,1.000000,,2013-04-19 05:42:00,
2013-04-19 00:52:00,43.0,33.0,-100.00,SSW,202,9.0,23.0,67,0.00,,,2.08,1.000000,,2013-04-19 05:52:00,
2013-04-19 01:12:00,43.0,32.0,-100.00,SSW,199,13.0,24.0,64,0.00,,,2.08,1.000000,,2013-04-19 06:12:00,
2013-04-19 01:22:00,43.0,32.0,-100.00,SSW,199,13.0,24.0,64,0.00,,,2.08,1.000000,,2013-04-19 06:22:00,
2013-04-19 01:32:00,43.0,32.0,-100.00,SSW,199,13.0,24.0,64,0.00,,,2.08,1.000000,,2013-04-19 06:32:00,
2013-04-19 01:42:00,43.0,32.0,-100.00,SSW,199,13.0,24.0,64,0.00,,,2.08,1.000000,,2013-04-19 06:42:00,
2013-04-19 01:52:00,43.0,32.0,-100.00,SSW,199,13.0,24.0,64,0.00,,,2.08,1.000000,,2013-04-19 06:52:00,
2013-04-19 02:12:00,42.0,31.0,-100.00,South,184,7.0,18.0,66,0.00,,,2.08,1.000000,,2013-04-19 07:12:00,
2013-04-19 02:21:00,42.0,31.0,-100.00,South,184,7.0,18.0,66,0.00,,,2.08,1.000000,,2013-04-19 07:21:00,
2013-04-19 02:32:00,42.0,31.0,-100.00,South,184,7.0,18.0,66,0.00,,,2.08,1.000000,,2013-04-19 07:32:00,
2013-04-19 02:42:00,42.0,31.0,-100.00,South,184,7.0,18.0,66,0.00,,,2.08,1.000000,,2013-04-19 07:42:00,
2013-04-19 02:52:00,42.0,31.0,-100.00,South,184,7.0,18.0,66,0.00,,,2.08,1.000000,,2013-04-19 07:52:00,
2013-04-19 03:22:00,42.0,30.0,-100.00,South,181,8.0,23.0,63,0.00,,,2.08,1.000000,,2013-04-19 08:22:00,
2013-04-19 03:32:00,42.0,30.0,-100.00,South,181,8.0,23.0,63,0.00,,,2.08,1.000000,,2013-04-19 08:32:00,
2013-04-19 03:42:00,42.0,30.0,-100.00,South,181,8.0,23.0,63,0.00,,,2.08,1.000000,,2013-04-19 08:42:00,
2013-04-19 03:52:00,42.0,30.0,-100.00,South,181,8.0,23.0,63,0.00,,,2.08,1.000000,,2013-04-19 08:52:00,
2013-04-19 04:12:00,42.0,28.0,-100.00,South,183,11.0,28.0,58,0.00,,,2.08,1.000000,,2013-04-19 09:12:00,
2013-04-19 04:21:00,42.0,28.0,-100.00,South,183,11.0,28.0,58,0.00,,,2.08,1.000000,,2013-04-19 09:21:00,
2013-04-19 04:32:00,42.0,28.0,-100.00,South,183,11.0,28.0,58,0.00,,,2.08,1.000000,,2013-04-19 09:32:00,
2013-04-19 04:42:00,42.0,28.0,-100.00,South,183,11.0,28.0,58,0.00,,,2.08,1.000000,,2013-04-19 09:42:00,
2013-04-19 04:52:00,42.0,28.0,-100.00,South,183,11.0,28.0,58,0.00,,,2.08,1.000000,,2013-04-19 09:52:00,
2013-04-19 05:13:00,41.0,27.0,-100.00,SSW,197,10.0,21.0,58,0.00,,,2.08,1.000000,,2013-04-19 10:13:00,
2013-04-19 05:23:00,41.0,27.0,-100.00,SSW,197,10.0,21.0,58,0.00,,,2.08,1.000000,,2013-04-19 10:23:00,
2013-04-19 05:33:00,41.0,27.0,-100.00,SSW,197,10.0,21.0,58,0.00,,,2.08,1.000000,,2013-04-19 10:33:00,
2013-04-19 05:42:00,41.0,27.0,-100.00,SSW,197,10.0,21.0,58,0.00,,,2.08,1.000000,,2013-04-19 10:42:00,
2013-04-19 05:52:00,41.0,27.0,-100.00,SSW,197,10.0,21.0,58,0.00,,,2.08,1.000000,,2013-04-19 10:52:00,
2013-04-19 06:11:00,41.0,29.0,-100.00,South,180,5.0,16.0,62,0.00,,,2.07,1.000000,,2013-04-19 11:11:00,
2013-04-19 06:22:00,41.0,29.0,-100.00,South,180,5.0,16.0,62,0.00,,,2.07,1.000000,,2013-04-19 11:22:00,
2013-04-19 06:32:00,41.0,29.0,-100.00,South,180,5.0,16.0,62,0.00,,,2.07,1.000000,,2013-04-19 11:32:00,
2013-04-19 06:42:00,41.0,29.0,-100.00,South,180,5.0,16.0,62,0.00,,,2.07,1.000000,,2013-04-19 11:42:00,
2013-04-19 06:52:00,41.0,29.0,-100.00,South,180,5.0,16.0,62,0.00,,,2.07,1.000000,,2013-04-19 11:52:00,
2013-04-19 07:12:00,40.0,26.0,-100.00,SSW,193,10.0,17.0,56,0.00,,,2.07,4.000000,,2013-04-19 12:12:00,
2013-04-19 07:22:00,40.0,26.0,-100.00,SSW,193,10.0,17.0,56,0.00,,,2.07,4.000000,,2013-04-19 12:22:00,
2013-04-19 07:32:00,40.0,26.0,-100.00,SSW,193,10.0,17.0,56,0.00,,,2.07,4.000000,,2013-04-19 12:32:00,
2013-04-19 07:42:00,40.0,26.0,-100.00,SSW,193,10.0,17.0,56,0.00,,,2.07,4.000000,,2013-04-19 12:42:00,
2013-04-19 07:52:00,40.0,26.0,-100.00,SSW,193,10.0,17.0,56,0.00,,,2.07,4.000000,,2013-04-19 12:52:00,
2013-04-19 08:11:00,40.0,27.0,-100.00,South,169,5.0,19.0,59,0.00,,,2.07,34.000000,,2013-04-19 13:11:00,
2013-04-19 08:21:00,40.0,27.0,-100.00,South,169,5.0,19.0,59,0.00,,,2.07,34.000000,,2013-04-19 13:21:00,
2013-04-19 08:32:00,40.0,27.0,-100.00,South,169,5.0,19.0,59,0.00,,,2.07,34.000000,,2013-04-19 13:32:00,
2013-04-19 08:42:00,40.0,27.0,-100.00,South,169,5.0,19.0,59,0.00,,,2.07,34.000000,,2013-04-19 13:42:00,
2013-04-19 08:52:00,40.0,27.0,-100.00,South,169,5.0,19.0,59,0.00,,,2.07,34.000000,,2013-04-19 13:52:00,
2013-04-19 09:11:00,41.0,26.0,-100.00,South,170,9.0,19.0,55,0.00,,,2.07,86.000000,,2013-04-19 14:11:00,
2013-04-19 09:22:00,41.0,26.0,-100.00,South,170,9.0,19.0,55,0.00,,,2.07,86.000000,,2013-04-19 14:22:00,
2013-04-19 09:32:00,41.0,26.0,-100.00,South,170,9.0,19.0,55,0.00,,,2.07,86.000000,,2013-04-19 14:32:00,
2013-04-19 09:42:00,41.0,26.0,-100.00,South,170,9.0,19.0,55,0.00,,,2.07,86.000000,,2013-04-19 14:42:00,
2013-04-19 09:52:00,41.0,26.0,-100.00,South,170,9.0,19.0,55,0.00,,,2.07,86.000000,,2013-04-19 14:52:00,
2013-04-19 10:12:00,42.0,27.0,-100.00,SSE,167,9.0,19.0,54,0.00,,,2.07,158.000000,,2013-04-19 15:12:00,
2013-04-19 10:21:00,42.0,27.0,-100.00,SSE,167,9.0,19.0,54,0.00,,,2.07,158.000000,,2013-04-19 15:21:00,
2013-04-19 10:33:00,42.0,27.0,-100.00,SSE,167,9.0,19.0,54,0.00,,,2.07,158.000000,,2013-04-19 15:33:00,
2013-04-19 10:43:00,42.0,27.0,-100.00,SSE,167,9.0,19.0,54,0.00,,,2.07,158.000000,,2013-04-19 15:43:00,
2013-04-19 10:52:00,42.0,27.0,-100.00,SSE,167,9.0,19.0,54,0.00,,,2.07,158.000000,,2013-04-19 15:52:00,
2013-04-19 11:13:00,43.0,27.0,-100.00,South,186,11.0,22.0,52,0.00,,,2.07,358.000000,,2013-04-19 16:13:00,
2013-04-19 11:23:00,43.0,27.0,-100.00,South,186,11.0,22.0,52,0.00,,,2.07,358.000000,,2013-04-19 16:23:00,
2013-04-19 11:32:00,43.0,27.0,-100.00,South,186,11.0,22.0,52,0.00,,,2.07,358.000000,,2013-04-19 16:32:00,
2013-04-19 11:42:00,43.0,27.0,-100.00,South,186,11.0,22.0,52,0.00,,,2.07,358.000000,,2013-04-19 16:42:00,
2013-04-19 11:52:00,43.0,27.0,-100.00,South,186,11.0,22.0,52,0.00,,,2.07,358.000000,,2013-04-19 16:52:00,
2013-04-19 12:12:00,44.0,28.0,-100.00,South,176,9.0,21.0,52,0.00,,,2.07,466.000000,,2013-04-19 17:12:00,
2013-04-19 12:21:00,44.0,28.0,-100.00,South,176,9.0,21.0,52,0.00,,,2.07,466.000000,,2013-04-19 17:21:00,
2013-04-19 12:33:00,44.0,28.0,-100.00,South,176,9.0,21.0,52,0.00,,,2.07,466.000000,,2013-04-19 17:33:00,
2013-04-19 12:42:00,44.0,28.0,-100.00,South,176,9.0,21.0,52,0.00,,,2.07,466.000000,,2013-04-19 17:42:00,
2013-04-19 12:52:00,44.0,28.0,-100.00,South,176,9.0,21.0,52,0.00,,,2.07,466.000000,,2013-04-19 17:52:00,
2013-04-19 13:13:00,48.0,29.0,-100.00,South,171,10.0,21.0,47,0.00,,,1.74,834.000000,,2013-04-19 18:13:00,
2013-04-19 13:23:00,48.0,29.0,-100.00,South,171,10.0,21.0,47,0.00,,,1.74,834.000000,,2013-04-19 18:23:00,
2013-04-19 13:33:00,48.0,29.0,-100.00,South,171,10.0,21.0,47,0.00,,,1.74,834.000000,,2013-04-19 18:33:00,
2013-04-19 13:43:00,48.0,29.0,-100.00,South,171,10.0,21.0,47,0.00,,,1.74,834.000000,,2013-04-19 18:43:00,
2013-04-19 13:52:00,48.0,29.0,-100.00,South,171,10.0,21.0,47,0.00,,,1.74,834.000000,,2013-04-19 18:52:00,
2013-04-19 14:11:00,50.0,27.0,-100.00,South,174,10.0,21.0,41,0.00,,,0.91,946.000000,,2013-04-19 19:11:00,
2013-04-19 14:21:00,50.0,27.0,-100.00,South,174,10.0,21.0,41,0.00,,,0.91,946.000000,,2013-04-19 19:21:00,
2013-04-19 14:32:00,50.0,27.0,-100.00,South,174,10.0,21.0,41,0.00,,,0.91,946.000000,,2013-04-19 19:32:00,
2013-04-19 14:42:00,50.0,27.0,-100.00,South,174,10.0,21.0,41,0.00,,,0.91,946.000000,,2013-04-19 19:42:00,
2013-04-19 14:52:00,50.0,27.0,-100.00,South,174,10.0,21.0,41,0.00,,,0.91,946.000000,,2013-04-19 19:52:00,
2013-04-19 15:11:00,54.0,28.0,-100.00,SE,146,11.0,23.0,36,0.00,,,0.61,1004.000000,,2013-04-19 20:11:00,
2013-04-19 15:22:00,54.0,28.0,-100.00,SE,146,11.0,23.0,36,0.00,,,0.61,1004.000000,,2013-04-19 20:22:00,
2013-04-19 15:32:00,54.0,28.0,-100.00,SE,146,11.0,23.0,36,0.00,,,0.61,1004.000000,,2013-04-19 20:32:00,
2013-04-19 15:42:00,54.0,28.0,-100.00,SE,146,11.0,23.0,36,0.00,,,0.61,1004.000000,,2013-04-19 20:42:00,
2013-04-19 15:51:00,54.0,28.0,-100.00,SE,146,11.0,23.0,36,0.00,,,0.61,1004.000000,,2013-04-19 20:51:00,
2013-04-19 16:21:00,56.0,26.0,-100.00,SSE,157,10.0,19.0,31,0.00,,,0.51,867.000000,,2013-04-19 21:21:00,
2013-04-19 16:32:00,56.0,26.0,-100.00,SSE,157,10.0,19.0,31,0.00,,,0.51,867.000000,,2013-04-19 21:32:00,
2013-04-19 16:42:00,56.0,26.0,-100.00,SSE,157,10.0,19.0,31,0.00,,,0.51,867.000000,,2013-04-19 21:42:00,
2013-04-19 16:52:00,56.0,26.0,-100.00,SSE,157,10.0,19.0,31,0.00,,,0.51,867.000000,,2013-04-19 21:52:00,
2013-04-19 17:22:00,56.0,22.0,-100.00,South,187,11.0,23.0,26,0.00,,,0.28,707.000000,,2013-04-19 22:22:00,
2013-04-19 17:33:00,56.0,22.0,-100.00,South,187,11.0,23.0,26,0.00,,,0.28,707.000000,,2013-04-19 22:33:00,
2013-04-19 17:42:00,56.0,22.0,-100.00,South,187,11.0,23.0,26,0.00,,,0.28,707.000000,,2013-04-19 22:42:00,
2013-04-19 17:52:00,56.0,22.0,-100.00,South,187,11.0,23.0,26,0.00,,,0.28,707.000000,,2013-04-19 22:52:00,
2013-04-19 18:11:00,57.0,23.0,-100.00,SSE,165,10.0,21.0,27,0.00,,,0.07,485.000000,,2013-04-19 23:11:00,
2013-04-19 18:22:00,57.0,23.0,-100.00,SSE,165,10.0,21.0,27,0.00,,,0.07,485.000000,,2013-04-19 23:22:00,
2013-04-19 18:32:00,57.0,23.0,-100.00,SSE,165,10.0,21.0,27,0.00,,,0.07,485.000000,,2013-04-19 23:32:00,
2013-04-19 18:42:00,57.0,23.0,-100.00,SSE,165,10.0,21.0,27,0.00,,,0.07,485.000000,,2013-04-19 23:42:00,
2013-04-19 18:52:00,57.0,23.0,-100.00,SSE,165,10.0,21.0,27,0.00,,,0.07,485.000000,,2013-04-19 23:52:00,
2013-04-19 19:12:00,55.0,22.0,-100.00,South,172,9.0,19.0,27,0.00,,,0.03,250.000000,,2013-04-20 00:12:00,
2013-04-19 19:21:00,55.0,22.0,-100.00,South,172,9.0,19.0,27,0.00,,,0.03,250.000000,,2013-04-20 00:21:00,
2013-04-19 19:32:00,55.0,22.0,-100.00,South,172,9.0,19.0,27,0.00,,,0.03,250.000000,,2013-04-20 00:32:00,
2013-04-19 19:41:00,55.0,22.0,-100.00,South,172,9.0,19.0,27,0.00,,,0.03,250.000000,,2013-04-20 00:41:00,
2013-04-19 19:51:00,55.0,22.0,-100.00,South,172,9.0,19.0,27,0.00,,,0.03,250.000000,,2013-04-20 00:51:00,
2013-04-19 20:11:00,53.0,22.0,-100.00,SSW,196,9.0,18.0,30,0.00,,,0.01,28.000000,,2013-04-20 01:11:00,
2013-04-19 20:21:00,53.0,22.0,-100.00,SSW,196,9.0,18.0,30,0.00,,,0.01,28.000000,,2013-04-20 01:21:00,
2013-04-19 20:32:00,53.0,22.0,-100.00,SSW,196,9.0,18.0,30,0.00,,,0.01,28.000000,,2013-04-20 01:32:00,
2013-04-19 20:42:00,53.0,22.0,-100.00,SSW,196,9.0,18.0,30,0.00,,,0.01,28.000000,,2013-04-20 01:42:00,
2013-04-19 20:52:00,53.0,22.0,-100.00,SSW,196,9.0,18.0,30,0.00,,,0.01,28.000000,,2013-04-20 01:52:00,
2013-04-19 21:11:00,50.0,23.0,-100.00,South,178,4.0,14.0,34,0.00,,,0.01,1.000000,,2013-04-20 02:11:00,
2013-04-19 21:21:00,50.0,23.0,-100.00,South,178,4.0,14.0,34,0.00,,,0.01,1.000000,,2013-04-20 02:21:00,
2013-04-19 21:32:00,50.0,23.0,-100.00,South,178,4.0,14.0,34,0.00,,,0.01,1.000000,,2013-04-20 02:32:00,
2013-04-19 21:42:00,50.0,23.0,-100.00,South,178,4.0,14.0,34,0.00,,,0.01,1.000000,,2013-04-20 02:42:00,
2013-04-19 21:52:00,50.0,23.0,-100.00,South,178,4.0,14.0,34,0.00,,,0.01,1.000000,,2013-04-20 02:52:00,
2013-04-19 22:21:00,46.0,29.0,-100.00,SE,141,3.0,6.0,52,0.00,,,0.00,1.000000,,2013-04-20 03:21:00,
2013-04-19 22:33:00,46.0,29.0,-100.00,SE,141,3.0,6.0,52,0.00,,,0.00,1.000000,,2013-04-20 03:33:00,
2013-04-19 22:43:00,46.0,29.0,-100.00,SE,141,3.0,6.0,52,0.00,,,0.00,1.000000,,2013-04-20 03:43:00,
2013-04-19 22:52:00,46.0,29.0,-100.00,SE,141,3.0,6.0,52,0.00,,,0.00,1.000000,,2013-04-20 03:52:00,
2013-04-19 23:23:00,42.0,30.0,-100.00,SE,135,4.0,4.0,61,0.00,,,0.00,1.000000,,2013-04-20 04:23:00,
2013-04-19 23:32:00,42.0,30.0,-100.00,SE,135,4.0,4.0,61,0.00,,,0.00,1.000000,,2013-04-20 04:32:00,
2013-04-19 23:42:00,42.0,30.0,-100.00,SE,135,4.0,4.0,61,0.00,,,0.00,1.000000,,2013-04-20 04:42:00,
2013-04-19 23:52:00,42.0,30.0,-100.00,SE,135,4.0,4.0,61,0.00,,,0.00,1.000000,,2013-04-20 04:52:00,